| time (UTC) | temp F | wind direction | speed MPH | gust MPH | rain 1hr in | rain 24hr in | rain mn in | humidity % | barometer mb |
| 20260506134803 | 63 | 190 | 7.0 | 13.0 | 0.04 | 0.04 | 0.04 | 87 | 1008.1 |
| 20260506133803 | 63 | 207 | 6.0 | 12.0 | 0.03 | 0.03 | 0.03 | 86 | 1008.5 |
| 20260506133303 | 63 | 205 | 6.0 | 13.0 | 0.03 | 0.03 | 0.03 | 86 | 1008.4 |
| 20260506132803 | 63 | 207 | 7.0 | 14.0 | 0.02 | 0.02 | 0.02 | 85 | 1008.3 |
| 20260506132306 | 64 | 194 | 7.0 | 15.0 | 0.02 | 0.02 | 0.02 | 84 | 1008.1 |
| 20260506131303 | 64 | 182 | 5.0 | 9.0 | 0.01 | 0.01 | 0.01 | 82 | 1008.0 |
| 20260506130804 | 64 | 211 | 7.0 | 12.0 | 0.01 | 0.01 | 0.01 | 82 | 1007.9 |
| 20260506125803 | 64 | 191 | 5.0 | 14.0 | 0.01 | 0.01 | 0.01 | 81 | 1007.8 |
| 20260506125305 | 65 | 206 | 6.0 | 15.0 | 0.00 | 0.00 | 0.00 | 81 | 1007.5 |
| 20260506124804 | 65 | 192 | 6.0 | 12.0 | 0.00 | 0.00 | 0.00 | 80 | 1007.6 |
| 20260506124304 | 65 | 206 | 7.0 | 12.0 | 0.00 | 0.00 | 0.00 | 79 | 1007.7 |
| 20260506123303 | 65 | 0 | 0.0 | 0.0 | 0.00 | 0.00 | 0.00 | 79 | 1007.8 |
| 20260506122803 | 65 | 0 | 0.0 | 0.0 | 0.00 | 0.00 | 0.00 | 79 | 1007.9 |
| 20260506122305 | 65 | 0 | 0.0 | 0.0 | 0.00 | 0.00 | 0.00 | 78 | 1008.1 |
| 20260506121803 | 65 | 0 | 0.0 | 0.0 | 0.00 | 0.00 | 0.00 | 78 | 1008.1 |
| 20260506121303 | 65 | 0 | 0.0 | 0.0 | 0.00 | 0.00 | 0.00 | 77 | 1008.2 |
| 20260506120804 | 66 | 0 | 0.0 | 0.0 | 0.00 | 0.00 | 0.00 | 76 | 1008.2 |
| 20260506120303 | 66 | 0 | 0.0 | 0.0 | 0.00 | 0.00 | 0.00 | 75 | 1008.2 |
| 20260506114804 | 66 | 0 | 0.0 | 0.0 | 0.00 | 0.00 | 0.00 | 72 | 1008.0 |
| 20260506114304 | 67 | 0 | 0.0 | 0.0 | 0.00 | 0.00 | 0.00 | 72 | 1007.9 |
| 20260506113805 | 67 | 0 | 0.0 | 0.0 | 0.00 | 0.00 | 0.00 | 72 | 1007.7 |
| 20260506112803 | 67 | 151 | 5.0 | 5.0 | 0.00 | 0.00 | 0.00 | 72 | 1007.6 |
| 20260506112306 | 67 | 151 | 5.0 | 18.0 | 0.00 | 0.00 | 0.00 | 72 | 1007.5 |
| 20260506111803 | 66 | 208 | 6.0 | 13.0 | 0.00 | 0.00 | 0.00 | 72 | 1007.5 |
| 20260506111303 | 66 | 199 | 9.0 | 16.0 | 0.00 | 0.00 | 0.00 | 72 | 1007.5 |
| 20260506110303 | 66 | 205 | 9.0 | 20.0 | 0.00 | 0.00 | 0.00 | 72 | 1007.4 |
| 20260506105803 | 66 | 185 | 8.0 | 17.0 | 0.00 | 0.00 | 0.00 | 72 | 1007.3 |
| 20260506105305 | 66 | 191 | 5.0 | 15.0 | 0.00 | 0.00 | 0.00 | 72 | 1007.3 |
| 20260506104804 | 66 | 196 | 9.0 | 17.0 | 0.00 | 0.00 | 0.00 | 72 | 1007.3 |
| 20260506103804 | 66 | 193 | 8.0 | 17.0 | 0.00 | 0.00 | 0.00 | 72 | 1007.2 |
| 20260506102804 | 66 | 211 | 11.0 | 16.0 | 0.00 | 0.00 | 0.00 | 72 | 1007.2 |
| 20260506101304 | 66 | 205 | 8.0 | 18.0 | 0.00 | 0.00 | 0.00 | 72 | 1007.2 |
| 20260506100804 | 66 | 205 | 6.0 | 16.0 | 0.00 | 0.00 | 0.00 | 71 | 1007.1 |
| 20260506100303 | 66 | 193 | 7.0 | 13.0 | 0.00 | 0.00 | 0.00 | 71 | 1007.1 |
| 20260506095804 | 66 | 198 | 7.0 | 17.0 | 0.00 | 0.00 | 0.00 | 71 | 1007.1 |
| 20260506095305 | 66 | 201 | 9.0 | 17.0 | 0.00 | 0.00 | 0.00 | 71 | 1007.1 |
| 20260506094804 | 66 | 212 | 10.0 | 16.0 | 0.00 | 0.00 | 0.00 | 71 | 1007.2 |
| 20260506094304 | 67 | 213 | 10.0 | 18.0 | 0.00 | 0.00 | 0.00 | 71 | 1007.2 |
| 20260506093803 | 67 | 186 | 10.0 | 21.0 | 0.00 | 0.00 | 0.00 | 71 | 1007.2 |
| 20260506092305 | 67 | 191 | 10.0 | 18.0 | 0.00 | 0.00 | 0.00 | 70 | 1007.1 |
| 20260506091803 | 67 | 196 | 9.0 | 17.0 | 0.00 | 0.00 | 0.00 | 70 | 1007.2 |
| 20260506091303 | 67 | 188 | 9.0 | 15.0 | 0.00 | 0.00 | 0.00 | 70 | 1007.2 |
| 20260506090803 | 67 | 189 | 9.0 | 14.0 | 0.00 | 0.00 | 0.00 | 69 | 1007.2 |
| 20260506090303 | 67 | 193 | 10.0 | 16.0 | 0.00 | 0.00 | 0.00 | 69 | 1007.2 |
| 20260506085804 | 68 | 185 | 11.0 | 17.0 | 0.00 | 0.00 | 0.00 | 69 | 1007.3 |
| 20260506085306 | 68 | 198 | 9.0 | 17.0 | 0.00 | 0.00 | 0.00 | 68 | 1007.4 |
| 20260506084804 | 68 | 198 | 9.0 | 18.0 | 0.00 | 0.00 | 0.00 | 68 | 1007.5 |
| 20260506084303 | 68 | 203 | 10.0 | 17.0 | 0.00 | 0.00 | 0.00 | 68 | 1007.4 |
| 20260506083803 | 68 | 184 | 9.0 | 18.0 | 0.00 | 0.00 | 0.00 | 67 | 1007.4 |
| 20260506083303 | 68 | 200 | 9.0 | 18.0 | 0.00 | 0.00 | 0.00 | 67 | 1007.4 |
| 20260506082804 | 68 | 209 | 11.0 | 17.0 | 0.00 | 0.00 | 0.00 | 66 | 1007.4 |
| 20260506081804 | 69 | 199 | 7.0 | 16.0 | 0.00 | 0.00 | 0.00 | 66 | 1007.3 |
| 20260506081303 | 69 | 199 | 8.0 | 16.0 | 0.00 | 0.00 | 0.00 | 65 | 1007.2 |
| 20260506080803 | 69 | 202 | 8.0 | 15.0 | 0.00 | 0.00 | 0.00 | 65 | 1007.2 |
| 20260506080303 | 69 | 190 | 11.0 | 20.0 | 0.00 | 0.00 | 0.00 | 64 | 1007.2 |
| 20260506073304 | 70 | 190 | 9.0 | 14.0 | 0.00 | 0.00 | 0.00 | 62 | 1007.4 |
| 20260506072803 | 70 | 192 | 7.0 | 20.0 | 0.00 | 0.00 | 0.00 | 62 | 1007.3 |
| 20260506072305 | 70 | 192 | 9.0 | 16.0 | 0.00 | 0.00 | 0.00 | 62 | 1007.4 |
| 20260506071804 | 70 | 200 | 6.0 | 14.0 | 0.00 | 0.00 | 0.00 | 61 | 1007.5 |
| 20260506071304 | 70 | 204 | 9.0 | 17.0 | 0.00 | 0.00 | 0.00 | 61 | 1007.5 |
| 20260506070804 | 70 | 208 | 7.0 | 15.0 | 0.00 | 0.00 | 0.00 | 61 | 1007.5 |
| 20260506070304 | 70 | 187 | 6.0 | 17.0 | 0.00 | 0.00 | 0.00 | 60 | 1007.6 |
| 20260506062305 | 71 | 205 | 8.0 | 17.0 | 0.00 | 0.00 | 0.00 | 57 | 1007.9 |
| 20260506061804 | 71 | 202 | 7.0 | 10.0 | 0.00 | 0.00 | 0.00 | 57 | 1007.8 |
| 20260506061303 | 71 | 204 | 8.0 | 14.0 | 0.00 | 0.00 | 0.00 | 57 | 1007.9 |
| 20260506060803 | 72 | 192 | 6.0 | 12.0 | 0.00 | 0.00 | 0.00 | 56 | 1007.9 |
| 20260506051304 | 73 | 204 | 7.0 | 18.0 | 0.00 | 0.00 | 0.00 | 52 | 1008.1 |
| 20260506050804 | 73 | 193 | 9.0 | 20.0 | 0.00 | 0.00 | 0.00 | 52 | 1008.2 |
| 20260506050304 | 73 | 215 | 11.0 | 20.0 | 0.00 | 0.00 | 0.00 | 52 | 1008.3 |
| 20260506044803 | 73 | 190 | 9.0 | 20.0 | 0.00 | 0.00 | 0.00 | 51 | 1008.3 |
| 20260506044303 | 73 | 204 | 9.0 | 16.0 | 0.00 | 0.00 | 0.00 | 51 | 1008.3 |
| 20260506043804 | 74 | 197 | 7.0 | 17.0 | 0.00 | 0.00 | 0.00 | 51 | 1008.3 |
| 20260506043304 | 74 | 195 | 13.0 | 20.0 | 0.00 | 0.00 | 0.00 | 51 | 1008.4 |
| 20260506042803 | 74 | 208 | 10.0 | 17.0 | 0.00 | 0.00 | 0.00 | 51 | 1008.3 |
| 20260506042305 | 74 | 205 | 9.0 | 20.0 | 0.00 | 0.00 | 0.00 | 50 | 1008.3 |
| 20260506041803 | 74 | 199 | 10.0 | 22.0 | 0.00 | 0.00 | 0.00 | 50 | 1008.3 |
| 20260506041303 | 74 | 203 | 7.0 | 15.0 | 0.00 | 0.00 | 0.00 | 50 | 1008.3 |
| 20260506040804 | 74 | 192 | 9.0 | 20.0 | 0.00 | 0.00 | 0.00 | 50 | 1008.3 |
| 20260506040304 | 74 | 185 | 9.0 | 16.0 | 0.00 | 0.00 | 0.00 | 50 | 1008.3 |
| 20260506035803 | 74 | 203 | 9.0 | 14.0 | 0.00 | 0.00 | 0.00 | 50 | 1008.3 |
| 20260506035306 | 74 | 202 | 9.0 | 13.0 | 0.00 | 0.00 | 0.00 | 49 | 1008.3 |
| 20260506034803 | 74 | 191 | 10.0 | 16.0 | 0.00 | 0.00 | 0.00 | 49 | 1008.2 |
| 20260506034303 | 74 | 193 | 9.0 | 17.0 | 0.00 | 0.00 | 0.00 | 49 | 1008.2 |
| 20260506033303 | 74 | 206 | 7.0 | 17.0 | 0.00 | 0.00 | 0.00 | 48 | 1008.3 |
| 20260506032803 | 74 | 214 | 7.0 | 15.0 | 0.00 | 0.00 | 0.00 | 48 | 1008.3 |
| 20260506032305 | 74 | 189 | 10.0 | 14.0 | 0.00 | 0.00 | 0.00 | 47 | 1008.3 |
| 20260506031804 | 74 | 205 | 9.0 | 20.0 | 0.00 | 0.00 | 0.00 | 46 | 1008.2 |
| 20260506031303 | 74 | 202 | 9.0 | 15.0 | 0.00 | 0.00 | 0.00 | 46 | 1008.2 |
| 20260506030803 | 74 | 206 | 5.0 | 12.0 | 0.00 | 0.00 | 0.00 | 45 | 1008.2 |
| 20260506030303 | 74 | 198 | 7.0 | 15.0 | 0.00 | 0.00 | 0.00 | 45 | 1008.2 |
| 20260506025305 | 74 | 188 | 7.0 | 15.0 | 0.00 | 0.00 | 0.00 | 43 | 1008.2 |
| 20260506024303 | 75 | 193 | 8.0 | 14.0 | 0.00 | 0.00 | 0.00 | 42 | 1008.3 |
| 20260506023804 | 75 | 189 | 6.0 | 12.0 | 0.00 | 0.00 | 0.00 | 41 | 1008.4 |
| 20260506023304 | 75 | 180 | 7.0 | 12.0 | 0.00 | 0.00 | 0.00 | 41 | 1008.4 |
| 20260506022804 | 75 | 190 | 7.0 | 14.0 | 0.00 | 0.00 | 0.00 | 41 | 1008.5 |
| 20260506022305 | 75 | 199 | 7.0 | 12.0 | 0.00 | 0.00 | 0.00 | 41 | 1008.5 |
| 20260506021804 | 75 | 190 | 7.0 | 16.0 | 0.00 | 0.00 | 0.00 | 41 | 1008.4 |
| 20260506021305 | 75 | 188 | 7.0 | 13.0 | 0.00 | 0.00 | 0.00 | 40 | 1008.3 |
| 20260506020805 | 75 | 195 | 7.0 | 16.0 | 0.00 | 0.00 | 0.00 | 40 | 1008.4 |
| 20260506020303 | 76 | 210 | 9.0 | 18.0 | 0.00 | 0.00 | 0.00 | 40 | 1008.3 |
| 20260506015803 | 76 | 193 | 6.0 | 12.0 | 0.00 | 0.00 | 0.00 | 39 | 1008.3 |
| 20260506015306 | 76 | 212 | 5.0 | 15.0 | 0.00 | 0.00 | 0.00 | 39 | 1008.3 |
| 20260506014803 | 76 | 197 | 7.0 | 12.0 | 0.00 | 0.00 | 0.00 | 38 | 1008.2 |
| 20260506014303 | 76 | 206 | 9.0 | 14.0 | 0.00 | 0.00 | 0.00 | 38 | 1008.2 |
| 20260506013803 | 76 | 194 | 7.0 | 12.0 | 0.00 | 0.00 | 0.00 | 38 | 1008.2 |
| 20260506012804 | 76 | 188 | 7.0 | 14.0 | 0.00 | 0.00 | 0.00 | 37 | 1008.0 |
| 20260506012307 | 76 | 196 | 9.0 | 15.0 | 0.00 | 0.00 | 0.00 | 37 | 1008.0 |
| 20260506011803 | 77 | 198 | 6.0 | 13.0 | 0.00 | 0.00 | 0.00 | 36 | 1008.0 |
| 20260506011303 | 77 | 204 | 6.0 | 12.0 | 0.00 | 0.00 | 0.00 | 36 | 1007.9 |
| 20260506010804 | 77 | 199 | 9.0 | 14.0 | 0.00 | 0.00 | 0.00 | 36 | 1007.8 |
| 20260506005804 | 77 | 190 | 6.0 | 12.0 | 0.00 | 0.00 | 0.00 | 35 | 1007.6 |
| 20260506005305 | 78 | 200 | 7.0 | 13.0 | 0.00 | 0.00 | 0.00 | 35 | 1007.6 |
| 20260506004803 | 78 | 202 | 8.0 | 20.0 | 0.00 | 0.00 | 0.00 | 34 | 1007.6 |
| 20260506004303 | 78 | 202 | 10.0 | 17.0 | 0.00 | 0.00 | 0.00 | 34 | 1007.4 |
| 20260506003804 | 78 | 197 | 6.0 | 12.0 | 0.00 | 0.00 | 0.00 | 34 | 1007.4 |
| 20260506002803 | 78 | 186 | 6.0 | 15.0 | 0.00 | 0.00 | 0.00 | 33 | 1007.3 |
| 20260506002305 | 79 | 195 | 7.0 | 12.0 | 0.00 | 0.00 | 0.00 | 33 | 1007.3 |
| 20260506001804 | 79 | 195 | 7.0 | 13.0 | 0.00 | 0.00 | 0.00 | 32 | 1007.2 |
| 20260506001303 | 79 | 205 | 10.0 | 15.0 | 0.00 | 0.00 | 0.00 | 31 | 1007.1 |
| 20260506000803 | 79 | 186 | 9.0 | 15.0 | 0.00 | 0.00 | 0.00 | 31 | 1007.1 |
| 20260506000303 | 79 | 195 | 9.0 | 16.0 | 0.00 | 0.00 | 0.00 | 31 | 1007.1 |
| 20260505234803 | 80 | 208 | 8.0 | 17.0 | 0.00 | 0.00 | 0.00 | 30 | 1007.0 |
| 20260505234305 | 80 | 213 | 9.0 | 22.0 | 0.00 | 0.00 | 0.00 | 30 | 1007.1 |
| 20260505233803 | 80 | 204 | 10.0 | 20.0 | 0.00 | 0.00 | 0.00 | 30 | 1007.0 |
| 20260505232804 | 80 | 197 | 10.0 | 20.0 | 0.00 | 0.00 | 0.00 | 30 | 1006.9 |
| 20260505232305 | 80 | 200 | 9.0 | 17.0 | 0.00 | 0.00 | 0.00 | 30 | 1006.8 |
| 20260505231803 | 81 | 204 | 11.0 | 23.0 | 0.00 | 0.00 | 0.00 | 29 | 1006.8 |
| 20260505231303 | 81 | 195 | 9.0 | 16.0 | 0.00 | 0.00 | 0.00 | 30 | 1006.8 |
| 20260505230803 | 81 | 177 | 9.0 | 17.0 | 0.00 | 0.00 | 0.00 | 30 | 1006.9 |
| 20260505230303 | 81 | 186 | 9.0 | 18.0 | 0.00 | 0.00 | 0.00 | 30 | 1006.9 |
| 20260505225803 | 81 | 191 | 8.0 | 16.0 | 0.00 | 0.00 | 0.00 | 30 | 1006.9 |
| 20260505225305 | 81 | 193 | 12.0 | 12.0 | 0.00 | 0.00 | 0.00 | 30 | 1007.0 |
| 20260505224803 | 81 | 197 | 8.0 | 18.0 | 0.00 | 0.00 | 0.00 | 30 | 1007.0 |
| 20260505223804 | 81 | 189 | 9.0 | 15.0 | 0.00 | 0.00 | 0.00 | 30 | 1006.9 |
| 20260505223304 | 81 | 196 | 9.0 | 15.0 | 0.00 | 0.00 | 0.00 | 30 | 1007.0 |
| 20260505222305 | 81 | 211 | 8.0 | 17.0 | 0.00 | 0.00 | 0.00 | 30 | 1007.0 |
| 20260505221804 | 82 | 195 | 10.0 | 18.0 | 0.00 | 0.00 | 0.00 | 30 | 1006.9 |
| 20260505221304 | 82 | 199 | 8.0 | 20.0 | 0.00 | 0.00 | 0.00 | 31 | 1006.9 |
| 20260505220303 | 82 | 195 | 7.0 | 20.0 | 0.00 | 0.00 | 0.00 | 31 | 1007.0 |
| 20260505215803 | 82 | 195 | 10.0 | 16.0 | 0.00 | 0.00 | 0.00 | 30 | 1007.0 |
| 20260505214303 | 83 | 210 | 9.0 | 20.0 | 0.00 | 0.00 | 0.00 | 29 | 1006.9 |
| 20260505213804 | 83 | 193 | 8.0 | 20.0 | 0.00 | 0.00 | 0.00 | 29 | 1006.9 |
| 20260505212803 | 83 | 198 | 12.0 | 23.0 | 0.00 | 0.00 | 0.00 | 29 | 1006.7 |
| 20260505211803 | 84 | 188 | 7.0 | 20.0 | 0.00 | 0.00 | 0.00 | 29 | 1006.7 |
| 20260505211303 | 84 | 201 | 13.0 | 23.0 | 0.00 | 0.00 | 0.00 | 28 | 1006.7 |
| 20260505210804 | 84 | 193 | 9.0 | 21.0 | 0.00 | 0.00 | 0.00 | 29 | 1006.7 |
| 20260505210303 | 84 | 188 | 15.0 | 20.0 | 0.00 | 0.00 | 0.00 | 29 | 1006.7 |
| 20260505205803 | 84 | 160 | 18.0 | 26.0 | 0.00 | 0.00 | 0.00 | 28 | 1006.6 |
| 20260505205305 | 84 | 193 | 10.0 | 20.0 | 0.00 | 0.00 | 0.00 | 30 | 1006.7 |
| 20260505204803 | 84 | 221 | 11.0 | 21.0 | 0.00 | 0.00 | 0.00 | 29 | 1006.8 |
| 20260505204303 | 84 | 199 | 12.0 | 22.0 | 0.00 | 0.00 | 0.00 | 29 | 1006.8 |
| 20260505203803 | 84 | 198 | 14.0 | 26.0 | 0.00 | 0.00 | 0.00 | 29 | 1006.7 |
| 20260505203303 | 84 | 202 | 9.0 | 26.0 | 0.00 | 0.00 | 0.00 | 29 | 1006.9 |
| 20260505202803 | 84 | 193 | 14.0 | 28.0 | 0.00 | 0.00 | 0.00 | 29 | 1006.7 |
| 20260505202306 | 84 | 211 | 13.0 | 23.0 | 0.00 | 0.00 | 0.00 | 29 | 1006.7 |
| 20260505201803 | 84 | 216 | 9.0 | 24.0 | 0.00 | 0.00 | 0.00 | 30 | 1006.8 |
| 20260505201304 | 84 | 187 | 9.0 | 23.0 | 0.00 | 0.00 | 0.00 | 30 | 1006.8 |
| 20260505200804 | 84 | 215 | 12.0 | 22.0 | 0.00 | 0.00 | 0.00 | 30 | 1007.0 |
| 20260505200304 | 84 | 196 | 14.0 | 21.0 | 0.00 | 0.00 | 0.00 | 29 | 1006.9 |
| 20260505195804 | 84 | 194 | 12.0 | 20.0 | 0.00 | 0.00 | 0.00 | 30 | 1007.1 |
| 20260505195305 | 84 | 195 | 13.0 | 18.0 | 0.00 | 0.00 | 0.00 | 30 | 1007.1 |
| 20260505194304 | 84 | 197 | 17.0 | 26.0 | 0.00 | 0.00 | 0.00 | 30 | 1007.1 |
| 20260505192803 | 84 | 206 | 14.0 | 24.0 | 0.00 | 0.00 | 0.00 | 30 | 1007.4 |
| 20260505191303 | 84 | 217 | 12.0 | 22.0 | 0.00 | 0.00 | 0.00 | 31 | 1007.5 |
| 20260505190804 | 84 | 236 | 9.0 | 14.0 | 0.00 | 0.00 | 0.00 | 31 | 1007.5 |
| 20260505190304 | 83 | 182 | 9.0 | 25.0 | 0.00 | 0.00 | 0.00 | 32 | 1007.5 |
| 20260505185804 | 83 | 189 | 16.0 | 29.0 | 0.00 | 0.00 | 0.00 | 32 | 1007.5 |
| 20260505185305 | 83 | 196 | 14.0 | 29.0 | 0.00 | 0.00 | 0.00 | 33 | 1007.6 |
| 20260505184803 | 83 | 176 | 15.0 | 26.0 | 0.00 | 0.00 | 0.00 | 32 | 1007.8 |
| 20260505184303 | 84 | 189 | 10.0 | 20.0 | 0.00 | 0.00 | 0.00 | 33 | 1007.9 |
| 20260505183304 | 84 | 197 | 9.0 | 18.0 | 0.00 | 0.00 | 0.00 | 34 | 1008.1 |
| 20260505182803 | 83 | 217 | 7.0 | 14.0 | 0.00 | 0.00 | 0.00 | 36 | 1008.1 |
| 20260505182306 | 83 | 197 | 14.0 | 25.0 | 0.00 | 0.00 | 0.00 | 35 | 1008.2 |
| 20260505181803 | 83 | 187 | 13.0 | 20.0 | 0.00 | 0.00 | 0.00 | 35 | 1008.3 |
| 20260505181304 | 83 | 197 | 13.0 | 24.0 | 0.00 | 0.00 | 0.00 | 35 | 1008.5 |
| 20260505180804 | 83 | 188 | 14.0 | 24.0 | 0.00 | 0.00 | 0.00 | 34 | 1008.5 |
| 20260505180303 | 83 | 190 | 7.0 | 16.0 | 0.00 | 0.00 | 0.00 | 34 | 1008.5 |
| 20260505174804 | 83 | 191 | 9.0 | 21.0 | 0.00 | 0.00 | 0.00 | 32 | 1008.5 |
| 20260505174303 | 83 | 197 | 13.0 | 26.0 | 0.00 | 0.00 | 0.00 | 32 | 1008.6 |
| 20260505172804 | 82 | 209 | 12.0 | 22.0 | 0.00 | 0.00 | 0.00 | 33 | 1008.8 |
| 20260505172305 | 82 | 202 | 10.0 | 18.0 | 0.00 | 0.00 | 0.00 | 34 | 1008.8 |
| 20260505171804 | 82 | 185 | 14.0 | 25.0 | 0.00 | 0.00 | 0.00 | 34 | 1008.9 |
| 20260505170803 | 81 | 196 | 10.0 | 20.0 | 0.00 | 0.00 | 0.00 | 35 | 1008.9 |
| 20260505170303 | 81 | 210 | 10.0 | 20.0 | 0.00 | 0.00 | 0.00 | 36 | 1009.0 |
| 20260505165803 | 81 | 204 | 10.0 | 20.0 | 0.00 | 0.00 | 0.00 | 35 | 1009.1 |
| 20260505165306 | 81 | 191 | 9.0 | 20.0 | 0.00 | 0.00 | 0.00 | 37 | 1009.1 |
| 20260505164803 | 81 | 178 | 7.0 | 17.0 | 0.00 | 0.00 | 0.00 | 38 | 1009.1 |
| 20260505164303 | 81 | 191 | 10.0 | 20.0 | 0.00 | 0.00 | 0.00 | 38 | 1009.3 |
| 20260505163303 | 81 | 237 | 9.0 | 16.0 | 0.00 | 0.00 | 0.00 | 39 | 1009.5 |
| 20260505162805 | 80 | 198 | 9.0 | 15.0 | 0.00 | 0.00 | 0.00 | 40 | 1009.5 |
| 20260505162306 | 80 | 243 | 6.0 | 14.0 | 0.00 | 0.00 | 0.00 | 42 | 1009.5 |
| 20260505161303 | 80 | 213 | 8.0 | 15.0 | 0.00 | 0.00 | 0.00 | 42 | 1009.6 |
| 20260505160303 | 80 | 187 | 12.0 | 20.0 | 0.00 | 0.00 | 0.00 | 42 | 1009.7 |
| 20260505153303 | 79 | 208 | 9.0 | 16.0 | 0.00 | 0.00 | 0.00 | 43 | 1009.8 |
| 20260505152803 | 78 | 221 | 6.0 | 15.0 | 0.00 | 0.00 | 0.00 | 45 | 1009.8 |
| 20260505152305 | 78 | 212 | 5.0 | 10.0 | 0.00 | 0.00 | 0.00 | 45 | 1009.8 |
| 20260505151804 | 78 | 217 | 3.0 | 12.0 | 0.00 | 0.00 | 0.00 | 45 | 1009.7 |
| 20260505151304 | 77 | 162 | 6.0 | 16.0 | 0.00 | 0.00 | 0.00 | 47 | 1009.8 |
| 20260505150803 | 77 | 148 | 8.0 | 13.0 | 0.00 | 0.00 | 0.00 | 46 | 1009.8 |
| 20260505150303 | 76 | 237 | 5.0 | 13.0 | 0.00 | 0.00 | 0.00 | 45 | 1009.7 |
| 20260505140303 | 74 | 170 | 5.0 | 12.0 | 0.00 | 0.00 | 0.00 | 49 | 1010.0 |